FW4113 Weather Reports


Display with metric or nautical units.
time (UTC)temp
F
wind
direction
speed
MPH
gust
MPH
rain 1hr
in
rain 24hr
in
rain mn
in
humidity
%
barometer
mb
20260508013038 56 236 1.0 4.0 0.00 0.00 0.00 12 1016.0
20260508011533 57 243 2.0 7.0 0.00 0.00 0.00 10 1015.9
20260508010032 58 264 2.0 6.0 0.00 0.00 0.00 10 1015.9
20260508004524 59 248 2.0 7.0 0.00 0.00 0.00 10 1015.8
20260508003021 59 239 2.0 5.0 0.00 0.00 0.00 8 1015.8
20260508001515 60 238 3.0 8.0 0.00 0.00 0.00 9 1015.9
20260508000011 61 278 2.0 9.0 0.00 0.00 0.00 9 1015.8
20260507234506 61 306 3.0 6.0 0.00 0.00 0.00 9 1016.0
20260507233002 62 321 4.0 8.0 0.00 0.00 0.00 9 1016.3
20260507231559 63 299 5.0 9.0 0.00 0.00 0.00 8 1016.6
20260507230053 64 295 4.0 6.0 0.00 0.01 0.00 7 1016.8
20260507224549 64 326 4.0 8.0 0.00 0.01 0.00 7 1017.1
20260507223048 64 304 4.0 8.0 0.00 0.01 0.00 8 1017.2
20260507221540 64 322 4.0 10.0 0.00 0.01 0.00 9 1017.5
20260507220035 63 325 4.0 9.0 0.00 0.01 0.00 9 1017.9
20260507214530 63 317 3.0 9.0 0.00 0.01 0.00 11 1018.2
20260507213028 63 293 3.0 9.0 0.00 0.01 0.00 9 1018.2
20260507211522 64 333 4.0 8.0 0.00 0.01 0.00 10 1018.6
20260507210017 63 298 2.0 7.0 0.00 0.04 0.00 12 1019.0
20260507204513 62 321 2.0 6.0 0.00 0.04 0.00 11 1019.3
20260507203013 61 349 2.0 8.0 0.00 0.04 0.00 9 1019.8
20260507201506 61 104 1.0 15.0 0.00 0.04 0.00 12 1020.2
20260507200003 60 107 3.0 12.0 0.00 0.04 0.00 14 1020.3
20260507194604 59 105 5.0 12.0 0.00 0.04 0.00 13 1020.4
20260507193058 59 255 2.0 12.0 0.00 0.04 0.00 14 1020.8
20260507191555 59 54 2.0 9.0 0.00 0.04 0.00 15 1021.0
20260507190052 58 136 5.0 13.0 0.00 0.04 0.00 19 1021.2
20260507184548 57 101 3.0 10.0 0.00 0.04 0.00 21 1021.5
20260507183047 57 129 4.0 9.0 0.00 0.04 0.00 20 1021.7
20260507181542 56 63 3.0 7.0 0.00 0.04 0.00 21 1021.9
20260507180040 55 110 4.0 11.0 0.00 0.04 0.00 21 1022.0
20260507174536 54 296 1.0 9.0 0.00 0.04 0.00 24 1022.2
20260507173041 53 88 4.0 8.0 0.00 0.04 0.00 27 1022.5
20260507171527 52 121 5.0 11.0 0.00 0.04 0.00 25 1023.0
20260507170024 51 103 3.0 8.0 0.00 0.04 0.00 25 1023.3
20260507164519 50 117 2.0 7.0 0.00 0.04 0.00 23 1023.3
20260507163015 47 100 2.0 8.0 0.00 0.04 0.00 26 1023.5
20260507161519 45 132 2.0 7.0 0.00 0.04 0.00 29 1023.9
20260507160007 42 64 2.0 4.0 0.00 0.04 0.00 31 1024.1
20260507154502 39 236 1.0 3.0 0.00 0.04 0.00 35 1024.5
20260507153057 37 234 0.0 4.0 0.00 0.04 0.00 33 1024.9
20260507151552 34 251 0.0 0.0 0.00 0.04 0.00 40 1025.2
20260507150048 32 265 0.0 0.0 0.00 0.04 0.00 45 1025.6
20260507144609 29 265 0.0 0.0 0.00 0.04 0.00 51 1025.7
20260507143039 26 258 0.0 2.0 0.00 0.04 0.00 61 1025.6
20260507141535 22 257 0.0 2.0 0.00 0.04 0.00 72 1025.6
20260507140032 20 303 0.0 0.0 0.00 0.04 0.00 71 1025.6
20260507134531 18 303 1.0 3.0 0.00 0.04 0.00 70 1025.7
20260507133030 17 275 1.0 3.0 0.00 0.04 0.00 69 1025.8
20260507131526 16 270 1.0 2.0 0.00 0.04 0.00 69 1025.6
20260507130024 16 269 0.0 1.0 0.00 0.04 0.00 69 1025.3
20260507124523 16 269 0.0 3.0 0.00 0.04 0.00 68 1025.1
20260507123020 16 292 0.0 3.0 0.00 0.04 0.00 69 1024.7
20260507121518 16 293 2.0 4.0 0.00 0.04 0.00 69 1024.5
20260507120016 16 291 0.0 2.0 0.00 0.04 0.00 68 1024.3
20260507114514 16 292 0.0 2.0 0.00 0.04 0.00 68 1024.3
20260507113013 17 293 1.0 2.0 0.00 0.04 0.00 67 1024.3
20260507111513 17 292 0.0 0.0 0.00 0.04 0.00 67 1024.2
20260507110008 18 296 0.0 0.0 0.00 0.04 0.00 67 1024.1
20260507104509 19 299 0.0 0.0 0.00 0.04 0.00 67 1024.1
20260507103003 19 302 0.0 2.0 0.00 0.04 0.00 67 1023.8
20260507101601 19 302 0.0 2.0 0.00 0.04 0.00 67 1023.6
20260507100057 20 301 0.0 1.0 0.00 0.04 0.00 67 1023.4
20260507094555 20 304 0.0 3.0 0.00 0.04 0.00 67 1023.2
20260507093059 20 306 0.0 1.0 0.00 0.04 0.00 67 1023.2
20260507091557 21 307 0.0 2.0 0.00 0.04 0.00 67 1022.9
20260507090048 21 308 1.0 2.0 0.00 0.04 0.00 67 1022.7
20260507084547 22 308 0.0 2.0 0.00 0.04 0.00 67 1022.6
20260507083044 22 310 1.0 2.0 0.00 0.04 0.00 69 1022.8
20260507081542 22 311 0.0 2.0 0.00 0.04 0.00 68 1022.5
20260507080043 22 319 0.0 0.0 0.00 0.04 0.00 69 1022.7
20260507074538 23 318 0.0 0.0 0.00 0.04 0.00 69 1022.8
20260507073037 23 319 0.0 0.0 0.00 0.04 0.00 69 1022.7
20260507071533 24 5 0.0 0.0 0.00 0.04 0.00 70 1022.5
20260507070032 24 5 0.0 0.0 0.00 0.05 0.00 70 1022.1
20260507064529 24 5 0.0 0.0 0.00 0.05 0.00 70 1022.1
20260507063027 25 5 0.0 0.0 0.00 0.05 0.00 70 1021.8
20260507061526 25 5 0.0 0.0 0.00 0.05 0.00 70 1021.7
20260507060033 25 5 0.0 0.0 0.00 0.06 0.05 71 1021.5
20260507054521 26 5 0.0 0.0 0.00 0.06 0.05 71 1021.1
20260507053021 26 92 0.0 0.0 0.00 0.06 0.05 70 1020.8
20260507051518 26 92 0.0 0.0 0.00 0.06 0.05 70 1020.8
20260507050015 27 92 0.0 0.0 0.00 0.06 0.05 70 1020.5
20260507044530 27 92 0.0 0.0 0.00 0.06 0.05 70 1020.4
20260507043011 27 92 0.0 0.0 0.00 0.06 0.05 69 1020.0
20260507041509 28 92 0.0 0.0 0.00 0.06 0.05 69 1019.7
20260507040008 28 92 0.0 0.0 0.00 0.06 0.05 68 1019.3
20260507034503 29 92 0.0 0.0 0.00 0.06 0.05 67 1019.1
20260507033001 29 92 0.0 0.0 0.00 0.06 0.05 66 1018.8
20260507031559 30 92 0.0 0.0 0.00 0.06 0.05 66 1018.5
20260507024557 31 92 0.0 0.0 0.00 0.06 0.05 66 1017.7
20260507023054 32 92 0.0 0.0 0.00 0.06 0.05 65 1017.3
20260507021551 33 103 0.0 0.0 0.00 0.06 0.05 65 1017.0
20260507020051 33 103 0.0 0.0 0.00 0.06 0.05 65 1016.6
20260507014547 34 104 0.0 0.0 0.00 0.06 0.05 64 1016.3